Location: Treviso
(45.6669°N, 12.2430°E)
Time: 00:40:48
(UTC+02:00)

ISS - Pass Details

Date: 25 May 2017
Orbit: 402 x 408 km, 51.6° (Epoch: 30 May)

Event Time Altitude Azimuth Distance (km) Brightness Sun altitude
Rises 02:41:14 0° 298° (WNW) 2,333 0.1 -20.1°
Reaches altitude 10° 02:43:24 10° 305° (NW) 1,469 -0.9 -19.9°
Maximum altitude 02:46:34 43° 18° (NNE) 585 -2.6 -19.7°
Drops below altitude 10° 02:49:42 10° 92° (E) 1,461 -0.7 -19.5°
Sets 02:51:51 0° 100° (E) 2,317 0.2 -19.3°
